| time (UTC) | temp C | wind direction | speed KPH | gust KPH | rain 1hr cm | rain 24hr cm | rain mn cm | humidity % | barometer mb |
| 20260507115026 | 22 | 0 | 3.2 | 9.7 | 0.00 | 0.00 | 0.00 | 41 | 1015.1 |
| 20260507114525 | 22 | 351 | 3.2 | 12.9 | 0.00 | 0.00 | 0.00 | 40 | 1015.1 |
| 20260507114025 | 22 | 40 | 4.8 | 14.5 | 0.00 | 0.00 | 0.00 | 41 | 1015.1 |
| 20260507113015 | 22 | 293 | 1.6 | 8.0 | 0.00 | 0.00 | 0.00 | 42 | 1015.2 |
| 20260507111511 | 22 | 337 | 1.6 | 9.7 | 0.00 | 0.00 | 0.00 | 42 | 1015.4 |
| 20260507111013 | 22 | 83 | 3.2 | 12.9 | 0.00 | 0.00 | 0.00 | 42 | 1015.4 |
| 20260507110013 | 21 | 26 | 1.6 | 14.5 | 0.00 | 0.00 | 0.00 | 43 | 1015.3 |
| 20260507105509 | 21 | 294 | 3.2 | 14.5 | 0.00 | 0.00 | 0.00 | 42 | 1015.3 |
| 20260507105011 | 22 | 64 | 3.2 | 12.9 | 0.00 | 0.00 | 0.00 | 42 | 1015.5 |
| 20260507104009 | 22 | 15 | 3.2 | 9.7 | 0.00 | 0.00 | 0.00 | 40 | 1015.4 |
| 20260507101008 | 21 | 48 | 1.6 | 8.0 | 0.00 | 0.00 | 0.00 | 42 | 1015.8 |
| 20260507100510 | 21 | 11 | 1.6 | 8.0 | 0.00 | 0.00 | 0.00 | 42 | 1015.8 |
| 20260507100008 | 21 | 270 | 1.6 | 8.0 | 0.00 | 0.00 | 0.00 | 42 | 1016.0 |
| 20260507095506 | 21 | 42 | 1.6 | 6.4 | 0.00 | 0.00 | 0.00 | 43 | 1015.9 |
| 20260507095007 | 20 | 254 | 1.6 | 8.0 | 0.00 | 0.00 | 0.00 | 43 | 1016.0 |
| 20260507094507 | 20 | 222 | 1.6 | 9.7 | 0.00 | 0.00 | 0.00 | 43 | 1016.0 |
| 20260507094006 | 20 | 175 | 3.2 | 9.7 | 0.00 | 0.00 | 0.00 | 43 | 1016.2 |
| 20260507093004 | 20 | 200 | 1.6 | 9.7 | 0.00 | 0.00 | 0.00 | 44 | 1016.2 |
| 20260507092507 | 20 | 130 | 1.6 | 9.7 | 0.00 | 0.00 | 0.00 | 44 | 1016.2 |
| 20260507091503 | 20 | 34 | 0.0 | 6.4 | 0.00 | 0.00 | 0.00 | 46 | 1016.4 |
| 20260507091001 | 20 | 39 | 1.6 | 14.5 | 0.00 | 0.00 | 0.00 | 46 | 1016.4 |
| 20260507090505 | 19 | 38 | 3.2 | 14.5 | 0.00 | 0.00 | 0.00 | 46 | 1016.4 |
| 20260507090002 | 19 | 147 | 1.6 | 11.3 | 0.00 | 0.00 | 0.00 | 47 | 1016.4 |
| 20260507085500 | 19 | 115 | 1.6 | 8.0 | 0.00 | 0.00 | 0.00 | 49 | 1016.4 |
| 20260507084959 | 19 | 5 | 1.6 | 8.0 | 0.00 | 0.00 | 0.00 | 47 | 1016.5 |
| 20260507084455 | 19 | 86 | 3.2 | 8.0 | 0.00 | 0.00 | 0.00 | 48 | 1016.5 |
| 20260507083954 | 18 | 20 | 3.2 | 8.0 | 0.00 | 0.00 | 0.00 | 50 | 1016.5 |
| 20260507083455 | 18 | 203 | 1.6 | 8.0 | 0.00 | 0.00 | 0.00 | 51 | 1016.5 |
| 20260507082954 | 18 | 301 | 1.6 | 6.4 | 0.00 | 0.00 | 0.00 | 50 | 1016.6 |
| 20260507082451 | 18 | 322 | 1.6 | 6.4 | 0.00 | 0.00 | 0.00 | 50 | 1016.6 |
| 20260507081454 | 18 | 196 | 1.6 | 6.4 | 0.00 | 0.00 | 0.00 | 53 | 1016.7 |
| 20260507080952 | 18 | 167 | 1.6 | 6.4 | 0.00 | 0.00 | 0.00 | 53 | 1016.7 |
| 20260507080451 | 17 | 187 | 1.6 | 11.3 | 0.00 | 0.00 | 0.00 | 53 | 1016.8 |
| 20260507075950 | 18 | 90 | 1.6 | 11.3 | 0.00 | 0.00 | 0.00 | 51 | 1016.8 |
| 20260507075447 | 18 | 105 | 1.6 | 9.7 | 0.00 | 0.00 | 0.00 | 53 | 1016.8 |
| 20260507074447 | 18 | 34 | 1.6 | 11.3 | 0.00 | 0.00 | 0.00 | 54 | 1016.6 |
| 20260507073947 | 17 | 138 | 1.6 | 8.0 | 0.00 | 0.00 | 0.00 | 53 | 1016.5 |
| 20260507073445 | 17 | 175 | 3.2 | 8.0 | 0.00 | 0.00 | 0.00 | 53 | 1016.5 |
| 20260507072944 | 17 | 144 | 3.2 | 9.7 | 0.00 | 0.00 | 0.00 | 53 | 1016.5 |
| 20260507072444 | 17 | 163 | 3.2 | 9.7 | 0.00 | 0.00 | 0.00 | 53 | 1016.6 |
| 20260507071945 | 17 | 172 | 3.2 | 11.3 | 0.00 | 0.00 | 0.00 | 52 | 1016.5 |
| 20260507071445 | 17 | 144 | 3.2 | 11.3 | 0.00 | 0.00 | 0.00 | 52 | 1016.6 |
| 20260507070941 | 17 | 156 | 3.2 | 11.3 | 0.00 | 0.00 | 0.00 | 52 | 1016.7 |
| 20260507070440 | 17 | 150 | 3.2 | 11.3 | 0.00 | 0.00 | 0.00 | 53 | 1016.7 |
| 20260507065935 | 17 | 130 | 1.6 | 11.3 | 0.00 | 0.00 | 0.00 | 54 | 1016.8 |
| 20260507065435 | 17 | 130 | 1.6 | 6.4 | 0.00 | 0.00 | 0.00 | 53 | 1016.8 |
| 20260507064934 | 17 | 307 | 1.6 | 6.4 | 0.00 | 0.00 | 0.00 | 53 | 1016.7 |
| 20260507064431 | 16 | 336 | 1.6 | 6.4 | 0.00 | 0.00 | 0.00 | 53 | 1016.7 |
| 20260507063929 | 16 | 29 | 1.6 | 6.4 | 0.00 | 0.00 | 0.00 | 53 | 1016.8 |
| 20260507063430 | 16 | 27 | 1.6 | 6.4 | 0.00 | 0.00 | 0.00 | 54 | 1016.7 |
| 20260507062930 | 16 | 29 | 1.6 | 6.4 | 0.00 | 0.00 | 0.00 | 56 | 1016.7 |
| 20260507062429 | 16 | 18 | 0.0 | 4.8 | 0.00 | 0.00 | 0.00 | 57 | 1016.7 |
| 20260507061928 | 15 | 246 | 0.0 | 6.4 | 0.00 | 0.00 | 0.00 | 57 | 1016.6 |
| 20260507061422 | 15 | 246 | 1.6 | 6.4 | 0.00 | 0.00 | 0.00 | 57 | 1016.8 |
| 20260507060921 | 15 | 355 | 0.0 | 4.8 | 0.00 | 0.00 | 0.00 | 59 | 1016.8 |
| 20260507055911 | 15 | 355 | 1.6 | 4.8 | 0.00 | 0.00 | 0.00 | 59 | 1016.7 |
| 20260507054911 | 15 | 342 | 1.6 | 6.4 | 0.00 | 0.00 | 0.00 | 61 | 1016.6 |
| 20260507053911 | 14 | 5 | 1.6 | 6.4 | 0.00 | 0.00 | 0.00 | 64 | 1016.5 |
| 20260507053418 | 14 | 5 | 1.6 | 8.0 | 0.00 | 0.00 | 0.00 | 65 | 1016.5 |
| 20260507052911 | 14 | 0 | 1.6 | 8.0 | 0.00 | 0.00 | 0.00 | 67 | 1016.5 |
| 20260507052411 | 13 | 17 | 3.2 | 8.0 | 0.00 | 0.00 | 0.00 | 67 | 1016.6 |
| 20260507051910 | 13 | 5 | 3.2 | 8.0 | 0.00 | 0.00 | 0.00 | 68 | 1016.5 |
| 20260507051411 | 13 | 5 | 3.2 | 8.0 | 0.00 | 0.00 | 0.00 | 70 | 1016.5 |
| 20260507050909 | 13 | 5 | 1.6 | 6.4 | 0.00 | 0.00 | 0.00 | 72 | 1016.5 |
| 20260507050410 | 12 | 5 | 1.6 | 6.4 | 0.00 | 0.00 | 0.00 | 73 | 1016.5 |
| 20260507045909 | 12 | 5 | 1.6 | 6.4 | 0.00 | 0.00 | 0.00 | 75 | 1016.4 |
| 20260507045408 | 12 | 0 | 0.0 | 4.8 | 0.00 | 0.00 | 0.00 | 79 | 1016.3 |
| 20260507044904 | 12 | 355 | 0.0 | 4.8 | 0.00 | 0.00 | 0.00 | 81 | 1016.3 |
| 20260507044405 | 11 | 355 | 1.6 | 4.8 | 0.00 | 0.00 | 0.00 | 83 | 1016.2 |
| 20260507043905 | 11 | 355 | 1.6 | 4.8 | 0.00 | 0.00 | 0.00 | 84 | 1016.3 |
| 20260507043407 | 11 | 355 | 0.0 | 4.8 | 0.00 | 0.00 | 0.00 | 85 | 1016.3 |
| 20260507042905 | 11 | 355 | 0.0 | 4.8 | 0.00 | 0.00 | 0.00 | 86 | 1016.3 |
| 20260507042409 | 11 | 355 | 1.6 | 4.8 | 0.00 | 0.00 | 0.00 | 87 | 1016.3 |
| 20260507041906 | 11 | 355 | 1.6 | 4.8 | 0.00 | 0.00 | 0.00 | 88 | 1016.2 |
| 20260507041402 | 10 | 355 | 1.6 | 4.8 | 0.00 | 0.00 | 0.00 | 88 | 1016.2 |
| 20260507040903 | 10 | 355 | 3.2 | 4.8 | 0.00 | 0.00 | 0.00 | 89 | 1016.1 |
| 20260507035905 | 10 | 342 | 1.6 | 4.8 | 0.00 | 0.00 | 0.00 | 90 | 1016.1 |
| 20260507035405 | 9 | 342 | 3.2 | 6.4 | 0.00 | 0.00 | 0.00 | 90 | 1016.0 |
| 20260507034907 | 9 | 342 | 1.6 | 6.4 | 0.00 | 0.00 | 0.00 | 89 | 1015.9 |
| 20260507034404 | 9 | 342 | 1.6 | 4.8 | 0.00 | 0.00 | 0.00 | 89 | 1015.9 |
| 20260507033905 | 9 | 341 | 3.2 | 4.8 | 0.00 | 0.00 | 0.00 | 89 | 1015.9 |
| 20260507033402 | 8 | 341 | 1.6 | 4.8 | 0.00 | 0.00 | 0.00 | 89 | 1015.9 |
| 20260507032903 | 8 | 341 | 0.0 | 3.2 | 0.00 | 0.00 | 0.00 | 89 | 1015.8 |
| 20260507032406 | 8 | 341 | 0.0 | 1.6 | 0.00 | 0.00 | 0.00 | 89 | 1015.8 |
| 20260507031859 | 8 | 341 | 0.0 | 1.6 | 0.00 | 0.00 | 0.00 | 89 | 1015.7 |
| 20260507030859 | 8 | 341 | 0.0 | 1.6 | 0.00 | 0.00 | 0.00 | 89 | 1015.8 |
| 20260507030359 | 8 | 341 | 0.0 | 1.6 | 0.00 | 0.00 | 0.00 | 89 | 1015.7 |
| 20260507025901 | 8 | 340 | 0.0 | 0.0 | 0.00 | 0.00 | 0.00 | 89 | 1015.5 |
| 20260507025347 | 8 | 340 | 0.0 | 1.6 | 0.00 | 0.00 | 0.00 | 89 | 1015.4 |
| 20260507024844 | 8 | 340 | 0.0 | 1.6 | 0.00 | 0.00 | 0.00 | 89 | 1015.5 |
| 20260507024331 | 8 | 340 | 0.0 | 1.6 | 0.00 | 0.00 | 0.00 | 89 | 1015.4 |
| 20260507023823 | 8 | 340 | 0.0 | 1.6 | 0.00 | 0.00 | 0.00 | 89 | 1015.3 |
| 20260507023316 | 8 | 340 | 0.0 | 0.0 | 0.00 | 0.00 | 0.00 | 89 | 1015.3 |
| 20260507022812 | 8 | 340 | 0.0 | 0.0 | 0.00 | 0.00 | 0.00 | 88 | 1015.3 |
| 20260507021808 | 8 | 340 | 0.0 | 0.0 | 0.00 | 0.00 | 0.00 | 89 | 1015.3 |
| 20260507021309 | 8 | 340 | 0.0 | 0.0 | 0.00 | 0.00 | 0.00 | 88 | 1015.3 |
| 20260507020804 | 8 | 340 | 0.0 | 1.6 | 0.00 | 0.00 | 0.00 | 89 | 1015.3 |
| 20260507020304 | 8 | 340 | 0.0 | 1.6 | 0.00 | 0.00 | 0.00 | 89 | 1015.3 |
| 20260507015306 | 9 | 340 | 0.0 | 1.6 | 0.00 | 0.00 | 0.00 | 89 | 1015.3 |
| 20260507014802 | 9 | 340 | 0.0 | 1.6 | 0.00 | 0.00 | 0.00 | 88 | 1015.3 |
| 20260507014300 | 9 | 340 | 0.0 | 1.6 | 0.00 | 0.00 | 0.00 | 89 | 1015.3 |
| 20260507013802 | 9 | 340 | 0.0 | 0.0 | 0.00 | 0.00 | 0.00 | 89 | 1015.3 |
| 20260507013258 | 9 | 340 | 0.0 | 0.0 | 0.00 | 0.00 | 0.00 | 88 | 1015.3 |
| 20260507012751 | 9 | 340 | 0.0 | 0.0 | 0.00 | 0.00 | 0.00 | 89 | 1015.2 |
| 20260507012255 | 9 | 340 | 0.0 | 1.6 | 0.00 | 0.00 | 0.00 | 89 | 1015.2 |
| 20260507011751 | 9 | 340 | 0.0 | 1.6 | 0.00 | 0.00 | 0.00 | 89 | 1015.3 |
| 20260507010225 | 9 | 340 | 0.0 | 1.6 | 0.00 | 0.00 | 0.00 | 89 | 1015.2 |
| 20260507005727 | 9 | 340 | 0.0 | 1.6 | 0.00 | 0.00 | 0.00 | 89 | 1015.3 |
| 20260507005227 | 9 | 340 | 0.0 | 0.0 | 0.00 | 0.00 | 0.00 | 89 | 1015.3 |
| 20260507004722 | 9 | 340 | 0.0 | 1.6 | 0.00 | 0.00 | 0.00 | 88 | 1015.3 |
| 20260507004207 | 9 | 340 | 0.0 | 1.6 | 0.00 | 0.00 | 0.00 | 89 | 1015.3 |
| 20260507003726 | 9 | 340 | 0.0 | 0.0 | 0.00 | 0.00 | 0.00 | 89 | 1015.3 |
| 20260507003206 | 9 | 340 | 0.0 | 0.0 | 0.00 | 0.00 | 0.00 | 89 | 1015.3 |
| 20260507002207 | 9 | 340 | 0.0 | 3.2 | 0.00 | 0.00 | 0.00 | 89 | 1015.4 |
| 20260507001207 | 9 | 340 | 0.0 | 3.2 | 0.00 | 0.00 | 0.00 | 89 | 1015.4 |
| 20260507000715 | 9 | 340 | 0.0 | 1.6 | 0.00 | 0.00 | 0.00 | 89 | 1015.4 |
| 20260507000207 | 10 | 340 | 0.0 | 1.6 | 0.00 | 0.00 | 0.00 | 89 | 1015.4 |
| 20260506235716 | 10 | 340 | 0.0 | 1.6 | 0.00 | 0.00 | 0.00 | 89 | 1015.5 |
| 20260506235205 | 10 | 340 | 0.0 | 1.6 | 0.00 | 0.00 | 0.00 | 89 | 1015.5 |
| 20260506234713 | 10 | 340 | 0.0 | 1.6 | 0.00 | 0.00 | 0.00 | 89 | 1015.7 |
| 20260506234145 | 10 | 340 | 0.0 | 1.6 | 0.00 | 0.00 | 0.00 | 89 | 1015.7 |
| 20260506232119 | 10 | 340 | 1.6 | 4.8 | 0.00 | 0.00 | 0.00 | 89 | 1015.9 |
| 20260506231701 | 10 | 340 | 1.6 | 6.4 | 0.00 | 0.00 | 0.00 | 89 | 1015.8 |
| 20260506230703 | 10 | 340 | 1.6 | 6.4 | 0.00 | 0.00 | 0.00 | 89 | 1015.9 |
| 20260506230110 | 10 | 340 | 1.6 | 8.0 | 0.00 | 0.00 | 0.00 | 89 | 1015.8 |
| 20260506225702 | 10 | 342 | 3.2 | 11.3 | 0.00 | 0.00 | 0.00 | 89 | 1015.8 |
| 20260506225104 | 10 | 5 | 4.8 | 14.5 | 0.00 | 0.00 | 0.00 | 88 | 1015.7 |
| 20260506224655 | 10 | 333 | 6.4 | 14.5 | 0.00 | 0.00 | 0.00 | 88 | 1015.8 |
| 20260506224108 | 10 | 343 | 4.8 | 9.7 | 0.00 | 0.00 | 0.00 | 89 | 1015.8 |
| 20260506223656 | 10 | 347 | 3.2 | 9.7 | 0.00 | 0.00 | 0.00 | 89 | 1015.8 |
| 20260506222654 | 10 | 342 | 1.6 | 6.4 | 0.00 | 0.00 | 0.00 | 88 | 1016.0 |
| 20260506221102 | 10 | 329 | 3.2 | 8.0 | 0.00 | 0.00 | 0.00 | 88 | 1016.1 |
| 20260506220648 | 10 | 332 | 3.2 | 6.4 | 0.00 | 0.00 | 0.00 | 88 | 1016.1 |
| 20260506215646 | 10 | 303 | 1.6 | 4.8 | 0.00 | 0.00 | 0.00 | 88 | 1016.2 |
| 20260506215040 | 10 | 302 | 1.6 | 4.8 | 0.00 | 0.00 | 0.00 | 88 | 1016.2 |
| 20260506214641 | 10 | 302 | 1.6 | 4.8 | 0.00 | 0.00 | 0.00 | 88 | 1016.3 |
| 20260506214019 | 10 | 302 | 1.6 | 6.4 | 0.00 | 0.00 | 0.00 | 88 | 1016.4 |
| 20260506213642 | 11 | 304 | 3.2 | 6.4 | 0.00 | 0.00 | 0.00 | 88 | 1016.4 |
| 20260506212632 | 11 | 325 | 3.2 | 6.4 | 0.00 | 0.00 | 0.00 | 87 | 1016.5 |
| 20260506211636 | 11 | 310 | 1.6 | 6.4 | 0.00 | 0.00 | 0.00 | 87 | 1016.5 |
| 20260506210959 | 11 | 315 | 3.2 | 6.4 | 0.00 | 0.00 | 0.00 | 87 | 1016.5 |
| 20260506210635 | 11 | 309 | 3.2 | 6.4 | 0.00 | 0.00 | 0.00 | 87 | 1016.5 |
| 20260506205959 | 11 | 297 | 3.2 | 8.0 | 0.00 | 0.00 | 0.00 | 87 | 1016.5 |
| 20260506205629 | 11 | 308 | 1.6 | 8.0 | 0.00 | 0.00 | 0.00 | 87 | 1016.5 |
| 20260506204959 | 11 | 290 | 1.6 | 6.4 | 0.00 | 0.00 | 0.00 | 87 | 1016.5 |
| 20260506203626 | 11 | 314 | 3.2 | 8.0 | 0.00 | 0.00 | 0.00 | 86 | 1016.5 |
| 20260506201922 | 11 | 340 | 4.8 | 16.1 | 0.00 | 0.00 | 0.00 | 86 | 1016.4 |
| 20260506201625 | 11 | 285 | 6.4 | 16.1 | 0.00 | 0.00 | 0.00 | 86 | 1016.4 |
| 20260506200919 | 11 | 345 | 8.0 | 16.1 | 0.00 | 0.00 | 0.00 | 85 | 1016.4 |
| 20260506200618 | 11 | 355 | 8.0 | 14.5 | 0.00 | 0.00 | 0.00 | 85 | 1016.4 |
| 20260506195917 | 11 | 332 | 8.0 | 14.5 | 0.00 | 0.00 | 0.00 | 85 | 1016.3 |
| 20260506195619 | 11 | 355 | 8.0 | 14.5 | 0.00 | 0.00 | 0.00 | 85 | 1016.3 |
| 20260506194917 | 11 | 17 | 9.7 | 16.1 | 0.00 | 0.00 | 0.00 | 85 | 1016.4 |
| 20260506194621 | 11 | 17 | 8.0 | 16.1 | 0.00 | 0.00 | 0.00 | 85 | 1016.4 |
| 20260506193918 | 11 | 355 | 6.4 | 14.5 | 0.00 | 0.00 | 0.00 | 85 | 1016.4 |
| 20260506193614 | 11 | 0 | 4.8 | 14.5 | 0.00 | 0.00 | 0.00 | 85 | 1016.4 |
| 20260506192916 | 11 | 313 | 6.4 | 19.3 | 0.00 | 0.00 | 0.00 | 84 | 1016.4 |
| 20260506192614 | 11 | 26 | 9.7 | 19.3 | 0.00 | 0.00 | 0.00 | 84 | 1016.4 |
| 20260506191916 | 11 | 327 | 11.3 | 19.3 | 0.00 | 0.00 | 0.00 | 84 | 1016.4 |
| 20260506191615 | 12 | 323 | 11.3 | 20.9 | 0.00 | 0.00 | 0.00 | 84 | 1016.4 |
| 20260506190914 | 12 | 355 | 11.3 | 20.9 | 0.00 | 0.00 | 0.00 | 84 | 1016.4 |
| 20260506190615 | 12 | 25 | 9.7 | 17.7 | 0.00 | 0.00 | 0.00 | 83 | 1016.5 |
| 20260506185909 | 12 | 10 | 6.4 | 14.5 | 0.00 | 0.00 | 0.00 | 83 | 1016.6 |
| 20260506184910 | 12 | 343 | 4.8 | 12.9 | 0.00 | 0.00 | 0.00 | 82 | 1016.5 |
| 20260506184607 | 12 | 0 | 3.2 | 12.9 | 0.00 | 0.00 | 0.00 | 82 | 1016.5 |
| 20260506183911 | 12 | 333 | 6.4 | 14.5 | 0.00 | 0.00 | 0.00 | 82 | 1016.5 |
| 20260506183608 | 12 | 330 | 9.7 | 17.7 | 0.00 | 0.00 | 0.00 | 82 | 1016.4 |
| 20260506182605 | 12 | 324 | 9.7 | 16.1 | 0.00 | 0.00 | 0.00 | 81 | 1016.6 |
| 20260506181909 | 12 | 338 | 6.4 | 16.1 | 0.00 | 0.00 | 0.00 | 81 | 1016.5 |
| 20260506181600 | 12 | 344 | 6.4 | 16.1 | 0.00 | 0.00 | 0.00 | 81 | 1016.4 |
| 20260506180909 | 12 | 296 | 4.8 | 16.1 | 0.00 | 0.00 | 0.00 | 80 | 1016.4 |
| 20260506175557 | 12 | 335 | 4.8 | 12.9 | 0.00 | 0.00 | 0.00 | 79 | 1016.2 |
| 20260506174911 | 12 | 345 | 6.4 | 14.5 | 0.00 | 0.00 | 0.00 | 79 | 1016.2 |
| 20260506174554 | 12 | 5 | 8.0 | 14.5 | 0.00 | 0.00 | 0.00 | 79 | 1016.1 |
| 20260506173909 | 12 | 343 | 8.0 | 16.1 | 0.00 | 0.00 | 0.00 | 79 | 1016.2 |
| 20260506172912 | 12 | 317 | 8.0 | 16.1 | 0.00 | 0.00 | 0.00 | 78 | 1016.0 |
| 20260506171551 | 13 | 311 | 8.0 | 17.7 | 0.00 | 0.00 | 0.00 | 77 | 1015.8 |
| 20260506170905 | 13 | 322 | 8.0 | 16.1 | 0.00 | 0.00 | 0.00 | 76 | 1015.8 |
| 20260506165906 | 13 | 336 | 8.0 | 19.3 | 0.00 | 0.00 | 0.00 | 75 | 1015.7 |
| 20260506165547 | 13 | 311 | 9.7 | 19.3 | 0.00 | 0.00 | 0.00 | 75 | 1015.5 |
| 20260506164908 | 13 | 0 | 9.7 | 22.5 | 0.00 | 0.00 | 0.00 | 75 | 1015.4 |
| 20260506164548 | 13 | 342 | 8.0 | 22.5 | 0.00 | 0.00 | 0.00 | 74 | 1015.3 |
| 20260506163903 | 13 | 315 | 8.0 | 14.5 | 0.00 | 0.00 | 0.00 | 74 | 1015.3 |
| 20260506163546 | 13 | 355 | 8.0 | 17.7 | 0.00 | 0.00 | 0.00 | 74 | 1015.2 |
| 20260506162902 | 13 | 313 | 8.0 | 17.7 | 0.00 | 0.00 | 0.00 | 73 | 1015.3 |
| 20260506161907 | 14 | 338 | 9.7 | 17.7 | 0.00 | 0.00 | 0.00 | 73 | 1015.1 |
| 20260506161538 | 14 | 351 | 11.3 | 19.3 | 0.00 | 0.00 | 0.00 | 73 | 1015.1 |
| 20260506160900 | 14 | 15 | 11.3 | 19.3 | 0.00 | 0.00 | 0.00 | 72 | 1015.0 |
| 20260506160536 | 14 | 340 | 11.3 | 22.5 | 0.00 | 0.00 | 0.00 | 72 | 1014.9 |
| 20260506155903 | 14 | 45 | 12.9 | 22.5 | 0.00 | 0.00 | 0.00 | 72 | 1014.9 |
| 20260506155535 | 15 | 342 | 11.3 | 19.3 | 0.00 | 0.00 | 0.00 | 71 | 1014.9 |
| 20260506154902 | 15 | 13 | 9.7 | 19.3 | 0.00 | 0.00 | 0.00 | 71 | 1014.9 |
| 20260506154532 | 15 | 9 | 11.3 | 20.9 | 0.00 | 0.00 | 0.00 | 71 | 1014.9 |
| 20260506153857 | 15 | 355 | 12.9 | 22.5 | 0.00 | 0.00 | 0.00 | 70 | 1014.9 |
| 20260506153532 | 15 | 28 | 12.9 | 22.5 | 0.00 | 0.00 | 0.00 | 69 | 1014.9 |
| 20260506152859 | 15 | 340 | 12.9 | 20.9 | 0.00 | 0.00 | 0.00 | 68 | 1014.9 |
| 20260506152531 | 16 | 336 | 12.9 | 20.9 | 0.00 | 0.00 | 0.00 | 68 | 1014.8 |
| 20260506151856 | 16 | 355 | 11.3 | 22.5 | 0.00 | 0.00 | 0.00 | 67 | 1014.8 |
| 20260506151527 | 16 | 0 | 11.3 | 22.5 | 0.00 | 0.00 | 0.00 | 66 | 1014.8 |
| 20260506150858 | 16 | 317 | 11.3 | 22.5 | 0.00 | 0.00 | 0.00 | 65 | 1014.9 |
| 20260506150527 | 16 | 10 | 9.7 | 22.5 | 0.00 | 0.00 | 0.00 | 65 | 1014.8 |
| 20260506145847 | 16 | 324 | 9.7 | 22.5 | 0.00 | 0.00 | 0.00 | 65 | 1014.8 |
| 20260506145545 | 16 | 322 | 8.0 | 22.5 | 0.00 | 0.00 | 0.00 | 64 | 1014.8 |
| 20260506144849 | 16 | 33 | 6.4 | 17.7 | 0.00 | 0.00 | 0.00 | 65 | 1014.7 |
| 20260506142849 | 17 | 0 | 9.7 | 19.3 | 0.00 | 0.00 | 0.00 | 63 | 1014.8 |
| 20260506142520 | 16 | 37 | 9.7 | 20.9 | 0.00 | 0.00 | 0.00 | 63 | 1014.8 |
| 20260506141517 | 17 | 5 | 9.7 | 22.5 | 0.00 | 0.00 | 0.00 | 63 | 1014.8 |
| 20260506140849 | 17 | 344 | 8.0 | 22.5 | 0.00 | 0.00 | 0.00 | 62 | 1014.8 |
| 20260506135848 | 17 | 355 | 9.7 | 20.9 | 0.00 | 0.00 | 0.00 | 62 | 1014.8 |
| 20260506135514 | 17 | 288 | 11.3 | 20.9 | 0.00 | 0.00 | 0.00 | 63 | 1014.9 |
| 20260506134846 | 17 | 327 | 9.7 | 17.7 | 0.00 | 0.00 | 0.00 | 63 | 1014.8 |
| 20260506134511 | 17 | 287 | 9.7 | 17.7 | 0.00 | 0.00 | 0.00 | 64 | 1014.9 |
| 20260506133846 | 17 | 324 | 11.3 | 20.9 | 0.00 | 0.00 | 0.00 | 64 | 1014.9 |
| 20260506132846 | 16 | 351 | 9.7 | 20.9 | 0.00 | 0.00 | 0.00 | 66 | 1014.9 |
| 20260506132511 | 16 | 327 | 9.7 | 19.3 | 0.00 | 0.00 | 0.00 | 68 | 1015.0 |
| 20260506131849 | 16 | 355 | 11.3 | 20.9 | 0.00 | 0.00 | 0.00 | 68 | 1015.1 |
| 20260506130846 | 16 | 266 | 9.7 | 24.1 | 0.00 | 0.00 | 0.00 | 69 | 1015.2 |
| 20260506130505 | 16 | 342 | 9.7 | 17.7 | 0.00 | 0.00 | 0.00 | 71 | 1015.2 |
| 20260506125847 | 15 | 288 | 9.7 | 17.7 | 0.00 | 0.00 | 0.00 | 69 | 1015.3 |
| 20260506125501 | 16 | 322 | 9.7 | 17.7 | 0.00 | 0.00 | 0.00 | 69 | 1015.3 |
| 20260506124848 | 16 | 333 | 9.7 | 17.7 | 0.00 | 0.00 | 0.00 | 68 | 1015.4 |
| 20260506124459 | 16 | 242 | 9.7 | 17.7 | 0.00 | 0.00 | 0.00 | 67 | 1015.7 |
| 20260506123846 | 16 | 282 | 9.7 | 17.7 | 0.00 | 0.00 | 0.00 | 66 | 1015.7 |
| 20260506123455 | 16 | 327 | 9.7 | 20.9 | 0.00 | 0.00 | 0.00 | 65 | 1015.4 |
| 20260506122839 | 17 | 293 | 9.7 | 20.9 | 0.00 | 0.00 | 0.00 | 64 | 1015.7 |
| 20260506121456 | 17 | 346 | 6.4 | 19.3 | 0.00 | 0.00 | 0.00 | 63 | 1015.8 |
| 20260506120839 | 17 | 257 | 8.0 | 17.7 | 0.00 | 0.00 | 0.00 | 65 | 1015.8 |
| 20260506120451 | 17 | 0 | 8.0 | 9.7 | 0.00 | 0.00 | 0.00 | 66 | 1015.8 |
| 20260506115841 | 16 | 290 | 9.7 | 16.1 | 0.00 | 0.00 | 0.00 | 66 | 1015.8 |
| 20260506115451 | 17 | 290 | 9.7 | 17.7 | 0.00 | 0.00 | 0.00 | 65 | 1015.8 |